Ortonville, MN

9:49 AM CDT on March 27, 2017 (GMT -0500)
Ortonville Municipal-Martinson

Weather History for KVVV - March, 2014

Change the Weather History Date:

Sunday, March 23, 2014

  Actual Average (KAQP) Record (KAQP)
Temperature  
Mean Temperature 18 °F -  
Max Temperature 28 °F 39 °F 69 °F (2003)
Min Temperature 8 °F 20 °F 1 °F (2002)
Degree Days  
Heating Degree Days 47    
Moisture  
Dew Point 5 °F    
Average Humidity 58    
Maximum Humidity 85    
Minimum Humidity 31    
Precipitation  
Precipitation 0.00 in - - ()
Sea Level Pressure  
Sea Level Pressure 30.42 in    
Wind  
Wind Speed 3 mph (NW)    
Max Wind Speed 12 mph    
Max Gust Speed 17 mph    
Visibility 10 miles    
Events      
Averages and records for this station are not official NWS values.
T = Trace of Precipitation, MM = Missing Value Source: NWS Daily Summary

Daily Weather History Graph

Daily Weather History Graph

Search for Another Location

Airport or City:

Trip Planner

Search our weather history database for the weather conditions in past years. The results will help you decide how hot, cold, wet, or windy it might be!

Date:

Astronomy

Mar. 23, 2014 Rise Set
Actual Time 7:23 AM CDT 7:42 PM CDT
Civil Twilight 6:53 AM CDT 8:11 PM CDT
Nautical Twilight 6:18 AM CDT 8:46 PM CDT
Astronomical Twilight 5:43 AM CDT 9:22 PM CDT
Moon 2:13 AM CDT (3/23) 11:51 AM CDT (3/23)
Length of Visible Light 13h 18m
Length of Day
12h 19m
Waning Gibbous, 54% of the Moon is Illuminated
Mar 23
Waning Gibbous
Mar 23
Last Quarter
Mar 30
New
Apr 7
First Quarter
Apr 15
Full

Hourly Weather History & Observations

Time (CDT) Temp. Windchill Dew Point Humidity Pressure Visibility Wind Dir Wind Speed Gust Speed Precip Events Conditions
12:14 AM 12.2 °F - 6.8 °F 79% 30.53 in 10.0 mi Calm Calm - N/A   Clear
12:33 AM 12.2 °F - 6.8 °F 79% 30.52 in 10.0 mi Calm Calm - N/A   Clear
12:54 AM 12.2 °F - 6.8 °F 79% 30.52 in 10.0 mi Calm Calm - N/A   Clear
1:13 AM 12.2 °F - 6.8 °F 79% 30.52 in 10.0 mi Calm Calm - N/A   Clear
1:34 AM 12.2 °F - 6.8 °F 79% 30.52 in 10.0 mi Calm Calm - N/A   Clear
1:54 AM 10.4 °F - 6.8 °F 85% 30.52 in 10.0 mi Calm Calm - N/A   Clear
2:13 AM 10.4 °F 4.0 °F 6.8 °F 85% 30.52 in 10.0 mi WSW 3.5 mph - N/A   Clear
2:34 AM 10.4 °F 4.0 °F 6.8 °F 85% 30.51 in 10.0 mi WSW 3.5 mph - N/A   Clear
2:54 AM 10.4 °F 4.0 °F 6.8 °F 85% 30.51 in 10.0 mi SW 3.5 mph - N/A   Clear
3:13 AM 10.4 °F 2.2 °F 6.8 °F 85% 30.51 in 10.0 mi WSW 4.6 mph - N/A   Clear
3:34 AM 10.4 °F 4.0 °F 6.8 °F 85% 30.50 in 10.0 mi WSW 3.5 mph - N/A   Clear
3:53 AM 10.4 °F 4.0 °F 6.8 °F 85% 30.50 in 10.0 mi WSW 3.5 mph - N/A   Clear
4:14 AM 8.6 °F - 5.0 °F 85% 30.50 in 10.0 mi Calm Calm - N/A   Clear
4:34 AM 10.4 °F 4.0 °F 5.0 °F 79% 30.50 in 10.0 mi WSW 3.5 mph - N/A   Clear
4:53 AM 8.6 °F - 3.2 °F 79% 30.50 in 10.0 mi Calm Calm - N/A   Clear
5:14 AM 8.6 °F - 3.2 °F 79% 30.49 in 10.0 mi Calm Calm - N/A   Clear
5:34 AM 8.6 °F - 3.2 °F 79% 30.49 in 10.0 mi Calm Calm - N/A   Clear
5:53 AM 8.6 °F - 3.2 °F 79% 30.49 in 10.0 mi Calm Calm - N/A   Clear
6:14 AM 8.6 °F 2.0 °F 3.2 °F 79% 30.49 in 10.0 mi WSW 3.5 mph - N/A   Clear
6:34 AM 8.6 °F - 3.2 °F 79% 30.49 in 10.0 mi Calm Calm - N/A   Clear
6:53 AM 8.6 °F - 3.2 °F 79% 30.48 in 10.0 mi Calm Calm - N/A   Clear
7:14 AM 8.6 °F - 3.2 °F 79% 30.48 in 10.0 mi Calm Calm - N/A   Clear
7:34 AM 8.6 °F - 3.2 °F 79% 30.48 in 10.0 mi Calm Calm - N/A   Clear
7:53 AM 8.6 °F - 3.2 °F 79% 30.48 in 10.0 mi Calm Calm - N/A   Clear
8:14 AM 10.4 °F 2.2 °F 3.2 °F 73% 30.48 in 10.0 mi WSW 4.6 mph - N/A   Clear
8:34 AM 12.2 °F 4.3 °F 5.0 °F 73% 30.48 in 10.0 mi West 4.6 mph - N/A   Clear
8:53 AM 12.2 °F 4.3 °F 6.8 °F 79% 30.48 in 10.0 mi WSW 4.6 mph - N/A   Clear
9:14 AM 15.8 °F 10.2 °F 6.8 °F 68% 30.48 in 10.0 mi WSW 3.5 mph - N/A   Clear
9:33 AM 17.6 °F 12.3 °F 8.6 °F 68% 30.48 in 10.0 mi WSW 3.5 mph - N/A   Clear
9:54 AM 19.4 °F 10.4 °F 6.8 °F 58% 30.48 in 10.0 mi West 6.9 mph - N/A   Clear
10:14 AM 19.4 °F 9.5 °F 6.8 °F 58% 30.47 in 10.0 mi WNW 8.1 mph - N/A   Clear
10:34 AM 19.4 °F 11.5 °F 5.0 °F 54% 30.47 in 10.0 mi West 5.8 mph - N/A   Clear
10:54 AM 21.2 °F 12.6 °F 3.2 °F 46% 30.46 in 10.0 mi NW 6.9 mph - N/A   Clear
11:13 AM 21.2 °F 12.6 °F 3.2 °F 46% 30.46 in 10.0 mi NW 6.9 mph - N/A   Scattered Clouds
11:34 AM 21.2 °F 13.6 °F 3.2 °F 46% 30.45 in 10.0 mi NW 5.8 mph - N/A   Clear
11:54 AM 23.0 °F 13.1 °F 1.4 °F 39% 30.45 in 10.0 mi NNW 9.2 mph - N/A   Clear
12:13 PM 24.8 °F 16.1 °F 1.4 °F 36% 30.44 in 10.0 mi NW 8.1 mph - N/A   Clear
12:34 PM 24.8 °F 15.3 °F 1.4 °F 36% 30.44 in 10.0 mi NNW 9.2 mph - N/A   Clear
12:53 PM 24.8 °F 14.0 °F 1.4 °F 36% 30.43 in 10.0 mi NW 11.5 mph 17.3 mph N/A   Clear
1:14 PM 26.6 °F 16.2 °F 1.4 °F 34% 30.43 in 10.0 mi NNW 11.5 mph - N/A   Clear
1:34 PM 26.6 °F 17.5 °F 1.4 °F 34% 30.42 in 10.0 mi NNW 9.2 mph - N/A   Clear
1:53 PM 26.6 °F 18.2 °F 1.4 °F 34% 30.41 in 10.0 mi NNW 8.1 mph - N/A   Clear
2:14 PM 26.6 °F 16.2 °F 1.4 °F 34% 30.40 in 10.0 mi NNW 11.5 mph - N/A   Clear
2:34 PM 26.6 °F 20.0 °F 1.4 °F 34% 30.38 in 10.0 mi West 5.8 mph - N/A   Clear
2:53 PM 28.4 °F 20.4 °F 1.4 °F 31% 30.37 in 10.0 mi NNW 8.1 mph - N/A   Clear
3:14 PM 28.4 °F 21.2 °F 1.4 °F 31% 30.36 in 10.0 mi NW 6.9 mph - N/A   Clear
3:34 PM 28.4 °F - 1.4 °F 31% 30.35 in 10.0 mi Calm Calm - N/A   Clear
3:53 PM 28.4 °F 21.2 °F 1.4 °F 31% 30.34 in 10.0 mi North 6.9 mph - N/A   Clear
4:14 PM 28.4 °F - 1.4 °F 31% 30.33 in 10.0 mi Calm Calm - N/A   Scattered Clouds
4:34 PM 28.4 °F 21.2 °F 3.2 °F 34% 30.33 in 10.0 mi NNW 6.9 mph - N/A   Mostly Cloudy
4:53 PM 28.4 °F 24.6 °F 1.4 °F 31% 30.32 in 10.0 mi North 3.5 mph - N/A   Mostly Cloudy
5:14 PM 28.4 °F 22.2 °F 1.4 °F 31% 30.32 in 10.0 mi NNW 5.8 mph - N/A   Mostly Cloudy
5:33 PM 28.4 °F - 1.4 °F 31% 30.32 in 10.0 mi Calm Calm - N/A   Scattered Clouds
5:54 PM 28.4 °F - 1.4 °F 31% 30.31 in 10.0 mi Calm Calm - N/A   Scattered Clouds
6:14 PM 28.4 °F - 3.2 °F 34% 30.31 in 10.0 mi Calm Calm - N/A   Scattered Clouds
6:33 PM 28.4 °F - 3.2 °F 34% 30.31 in 10.0 mi Calm Calm - N/A   Clear
6:54 PM 28.4 °F - 3.2 °F 34% 30.30 in 10.0 mi Calm Calm - N/A   Clear
7:14 PM 26.6 °F - 3.2 °F 37% 30.30 in 10.0 mi Calm Calm - N/A   Clear
7:33 PM 26.6 °F - 3.2 °F 37% 30.30 in 10.0 mi Calm Calm - N/A   Scattered Clouds
7:54 PM 26.6 °F - 6.8 °F 43% 30.30 in 10.0 mi Calm Calm - N/A   Overcast
8:14 PM 26.6 °F 21.2 °F 8.6 °F 47% 30.31 in 10.0 mi ESE 4.6 mph - N/A   Overcast
8:33 PM 26.6 °F 21.2 °F 8.6 °F 47% 30.31 in 10.0 mi ENE 4.6 mph - N/A   Scattered Clouds
8:54 PM 24.8 °F 20.5 °F 10.4 °F 54% 30.31 in 10.0 mi ENE 3.5 mph - N/A   Clear
9:14 PM 24.8 °F 19.1 °F 10.4 °F 54% 30.30 in 10.0 mi ENE 4.6 mph - N/A   Clear
9:34 PM 24.8 °F 19.1 °F 10.4 °F 54% 30.31 in 10.0 mi ENE 4.6 mph - N/A   Clear
9:54 PM 23.0 °F 15.8 °F 10.4 °F 59% 30.31 in 10.0 mi ENE 5.8 mph - N/A   Clear
10:13 PM 21.2 °F 12.6 °F 10.4 °F 63% 30.32 in 10.0 mi East 6.9 mph - N/A   Scattered Clouds
10:34 PM 21.2 °F 14.9 °F 10.4 °F 63% 30.33 in 10.0 mi ENE 4.6 mph - N/A   Mostly Cloudy
10:54 PM 21.2 °F 14.9 °F 12.2 °F 68% 30.33 in 10.0 mi ENE 4.6 mph - N/A   Scattered Clouds
11:13 PM 21.2 °F 13.6 °F 12.2 °F 68% 30.33 in 10.0 mi East 5.8 mph - N/A   Mostly Cloudy
11:34 PM 21.2 °F 12.6 °F 12.2 °F 68% 30.33 in 10.0 mi East 6.9 mph - N/A   Overcast
11:54 PM 21.2 °F 13.6 °F 12.2 °F 68% 30.33 in 10.0 mi East 5.8 mph - N/A   Scattered Clouds